Location: �terpigny
(49.8910°N, 2.9249°E)
Time: 22:31:28
(UTC+00:00)

Cosmos 1908 - Pass Details

Date: 29 May 2022
Orbit: 505 x 524 km, 82.5° (Epoch: 01 July)

Event Time Altitude Azimuth Distance (km) Brightness Sun altitude
Rises 22:43:58 0° 358° (N) 2,624 8.4 -17.1°
Reaches altitude 10° 22:46:19 10° 10° (N) 1,732 6.9 -17.2°
Maximum altitude 22:49:40 29° 72° (ENE) 954 4.5 -17.3°
Enters shadow 22:51:03 23° 109° (ESE) 1,126 4.6 -17.4°
